Theta_e
316 315 315 315 314 314 313 313 312 311 310 308 307 306 306 306 306 305 305 304 304 304 304 303 303 303 304 304 305 305 304 304 304 304 304 304 303 303 302 302 301 301 300 299 298 297 297 298 298 298 297 296 296 295 293 293 295 296 296 296 296 296 296 296 296 296 296 296 296 296 295 295 295 295 296 296 296 296 296 296 296 296 297 297 296
315 314 314 314 314 313 312 312 311 309 308 307 307 306 306 305 305 305 304 304 303 303 302 302 302 302 303 303 304 305 305 304 304 304 304 303 303 302 302 301 301 300 299 298 298 298 298 298 298 297 296 296 296 295 293 294 295 296 296 296 296 296 296 296 296 296 296 296 296 296 295 295 295 295 295 296 296 296 296 296 296 296 296 296 296
314 314 313 313 313 312 311 311 309 308 307 306 306 306 306 306 305 304 303 303 302 302 300 299 299 299 301 302 304 305 304 304 304 304 304 303 302 302 302 301 301 300 298 298 298 298 298 298 297 297 296 295 296 295 293 294 295 295 296 296 296 296 296 296 295 295 296 296 296 296 295 295 295 295 295 295 296 296 296 296 296 296 296 296 296
313 313 313 312 312 311 310 309 308 307 306 305 305 305 305 305 304 304 303 303 302 301 299 297 295 295 297 300 303 304 304 304 304 304 304 303 302 302 301 301 300 299 298 298 298 298 298 298 297 297 295 295 296 295 294 294 294 295 295 296 296 296 296 296 295 295 295 296 296 296 296 295 295 295 295 295 295 295 296 296 296 296 296 296 296
312 312 312 311 310 309 308 307 307 306 306 305 305 305 305 305 304 303 303 302 302 300 298 295 293 293 294 297 301 304 304 304 304 303 303 303 302 301 301 301 300 299 299 298 298 298 298 297 297 296 295 295 295 295 294 294 294 294 294 294 295 295 295 295 295 295 295 295 296 296 295 295 295 295 295 295 295 295 295 296 296 296 296 296 296
312 311 311 310 309 308 307 306 306 305 305 305 304 304 304 304 304 303 303 301 299 296 294 293 293 294 294 296 300 303 304 304 303 303 303 302 302 301 301 301 300 300 299 298 298 297 297 297 296 296 295 295 295 294 293 293 294 294 294 294 294 294 294 294 294 295 295 295 295 295 295 295 295 295 295 295 295 295 295 296 296 296 296 296 296
311 310 310 309 308 307 306 306 305 305 305 304 304 304 304 304 303 303 302 300 296 293 293 293 294 294 294 296 300 303 303 303 303 303 303 302 301 300 300 300 300 300 299 298 298 298 297 296 296 296 295 295 294 293 293 293 294 294 294 294 294 294 294 294 294 294 294 295 295 295 295 295 295 294 294 294 295 295 295 296 296 296 296 296 296
310 310 309 308 307 307 306 306 305 305 304 304 304 304 304 304 303 303 302 299 295 293 293 293 294 294 295 296 299 302 303 303 303 303 302 302 301 301 300 300 299 300 299 298 298 298 297 296 296 296 295 293 293 293 293 294 294 294 294 294 294 294 294 294 294 294 294 294 294 294 295 295 294 294 294 294 294 295 295 296 296 296 296 296 296
309 309 308 307 306 306 306 305 304 304 304 304 304 304 303 303 303 302 301 298 294 293 293 294 294 294 295 297 299 301 302 302 302 302 302 301 301 301 300 299 299 299 299 299 298 298 297 296 296 296 294 293 293 294 294 294 294 294 294 294 294 294 294 294 294 294 294 294 294 294 294 294 294 294 294 294 294 295 295 295 296 296 295 295 296
309 308 307 306 306 305 305 304 304 304 304 303 304 303 303 303 303 302 300 295 293 293 294 294 294 294 296 297 298 300 301 301 302 301 301 301 301 300 300 299 299 299 299 299 298 297 297 296 296 295 294 293 294 294 294 294 294 294 294 294 294 294 293 293 293 293 293 294 294 294 294 294 294 294 294 294 294 295 295 295 295 295 295 295 296
308 307 307 306 305 305 304 304 304 304 304 304 304 304 304 303 303 301 298 294 293 293 293 294 294 294 296 297 298 299 300 300 301 301 301 300 300 300 300 300 299 298 298 299 298 297 296 296 296 295 294 294 294 294 295 295 294 294 294 293 293 293 293 293 293 293 293 293 294 294 294 294 294 294 294 294 294 295 295 295 295 295 295 295 295
307 307 307 306 305 304 304 304 303 303 303 304 304 304 303 303 302 301 299 297 294 292 293 293 293 294 295 296 298 299 299 300 300 300 300 300 300 300 300 300 299 298 298 298 298 297 296 296 296 294 294 294 295 294 295 295 294 293 293 292 292 292 292 293 293 293 293 293 293 294 294 293 293 293 294 294 294 294 295 295 295 295 295 295 295
307 306 306 305 304 304 304 303 303 303 303 303 304 304 303 303 302 301 301 299 295 292 293 293 293 294 295 296 298 298 299 299 299 299 300 299 300 300 299 299 299 298 298 298 297 297 296 296 296 295 294 294 295 295 295 294 293 293 292 292 291 291 291 292 292 292 292 293 293 293 293 293 293 293 294 294 294 294 294 294 295 295 295 295 295
307 306 305 305 304 303 303 303 303 303 303 303 303 303 303 303 302 302 302 300 295 292 293 293 293 293 294 295 297 298 298 298 298 298 298 298 299 299 299 299 299 298 298 298 297 297 296 296 296 295 294 294 295 295 295 294 293 292 292 291 291 291 291 291 291 292 292 292 293 293 293 293 293 293 293 294 294 294 294 295 295 295 295 295 295
306 305 305 304 304 303 303 303 303 303 303 303 303 303 303 303 303 302 302 301 297 293 292 292 292 292 293 294 295 296 296 297 298 298 297 296 297 298 299 299 298 298 297 298 297 297 297 296 296 295 294 295 295 295 294 294 293 293 292 291 291 290 290 290 291 291 291 292 292 292 293 293 293 293 293 294 294 294 294 295 295 295 295 294 294
305 305 304 304 303 303 303 302 302 302 303 302 303 303 303 303 303 303 302 302 299 294 291 292 291 291 291 292 292 292 293 294 295 295 294 293 294 296 298 298 298 298 297 297 297 297 297 296 295 294 295 295 295 294 294 293 293 292 292 291 290 290 290 290 290 291 292 292 292 292 292 293 293 293 293 294 294 294 295 295 295 295 294 294 294
305 304 304 303 303 303 303 302 302 302 302 302 303 303 303 303 303 303 302 302 301 296 292 292 292 292 292 291 291 291 291 291 291 292 292 292 293 295 296 297 298 297 297 297 297 296 295 295 295 295 295 295 295 294 293 293 293 292 292 291 290 290 290 289 290 292 293 293 292 292 293 293 293 293 294 294 294 294 295 295 295 295 294 294 293
304 304 303 303 302 302 302 302 302 302 302 302 302 302 302 302 302 303 302 302 301 298 294 294 295 295 295 295 293 291 290 290 290 291 291 291 291 293 294 295 296 296 296 297 296 295 295 295 295 295 295 295 294 293 293 293 293 292 292 291 290 290 290 289 290 291 292 292 292 293 293 293 293 293 294 294 294 294 295 295 295 294 294 293 293
304 303 303 303 302 302 302 302 302 302 302 302 301 301 301 301 301 302 302 302 302 299 296 294 296 297 298 297 296 294 291 290 290 290 291 291 291 291 292 293 294 295 295 295 295 294 295 295 295 295 295 295 294 293 293 293 293 292 291 291 291 290 289 289 289 290 291 291 292 292 292 293 293 293 293 294 294 294 295 295 295 294 294 293 292
304 303 303 302 302 302 302 301 301 301 301 302 301 301 301 300 299 300 301 301 300 298 295 295 297 298 298 298 298 296 293 291 290 290 291 291 291 291 291 293 294 294 294 294 295 295 295 295 295 295 295 295 294 293 293 293 292 292 291 291 291 290 289 289 290 290 290 290 291 291 292 292 292 293 293 293 294 294 295 295 294 294 293 292 292
303 303 302 302 301 301 301 300 301 301 301 301 301 301 300 298 296 296 298 298 298 296 296 297 298 298 298 299 298 297 295 292 291 290 291 290 290 291 292 293 294 294 294 295 295 295 295 296 296 295 295 294 294 293 292 292 292 291 291 290 290 290 289 289 290 290 290 290 291 291 291 292 292 292 293 293 293 294 294 294 294 293 293 292 291
303 303 302 301 301 301 300 301 301 302 301 301 301 300 299 299 298 297 297 297 297 297 298 298 299 299 299 299 299 298 295 293 292 291 290 290 290 291 293 293 294 294 295 295 295 295 296 296 295 295 295 294 293 293 292 292 291 291 290 290 290 289 289 290 290 290 290 290 290 290 291 291 291 292 292 293 293 294 294 294 294 293 292 292 291
303 302 302 301 301 301 300 301 302 301 301 301 300 300 300 300 300 300 299 299 299 299 299 299 299 299 299 299 299 298 296 294 292 291 290 290 290 292 293 294 294 295 295 295 295 295 295 296 295 295 294 294 293 293 292 291 291 291 290 290 289 289 290 290 290 290 290 290 290 290 290 291 291 291 292 292 293 294 294 294 293 293 292 292 291
302 302 301 301 301 301 301 301 302 301 301 301 301 301 301 301 301 300 300 300 300 300 300 300 300 300 299 299 299 298 296 294 293 291 290 290 291 293 294 294 294 295 295 295 295 295 295 296 295 295 294 294 293 293 293 291 291 291 291 290 288 288 290 290 290 289 289 289 289 289 290 290 290 291 291 292 292 293 294 293 293 293 292 292 292
302 301 301 301 301 301 301 302 302 301 301 301 301 301 301 301 301 301 301 300 300 300 300 300 300 300 300 299 299 299 297 294 292 291 290 290 291 293 294 294 294 295 295 295 295 295 296 295 295 294 294 294 294 293 293 292 291 291 292 290 288 288 289 289 289 289 289 289 289 289 290 290 290 291 291 292 292 293 293 293 293 292 292 292 292
302 301 301 301 301 301 302 302 301 301 301 301 301 301 301 301 301 301 301 300 300 301 301 301 300 300 300 300 300 299 297 294 292 291 290 290 291 293 294 294 295 295 295 295 295 296 296 295 295 294 294 294 294 293 293 293 292 291 292 291 289 288 288 289 289 289 289 289 289 289 289 290 291 291 292 292 292 293 293 293 293 292 292 292 292
302 301 301 301 301 302 302 302 302 302 302 301 301 301 301 301 301 301 300 300 300 301 301 301 301 301 300 300 300 299 297 294 292 291 290 290 292 294 294 294 295 295 295 295 295 296 296 295 295 295 294 294 294 294 293 294 293 292 292 292 291 288 288 289 290 289 289 289 289 290 290 290 291 291 291 292 292 292 293 293 293 292 292 292 292
302 301 301 301 302 302 302 302 302 302 301 301 301 301 301 301 300 300 300 300 300 301 301 301 301 300 300 300 300 299 297 295 293 292 291 290 292 294 295 295 295 295 295 295 295 295 296 296 295 295 295 294 294 294 294 294 294 293 292 293 292 289 288 289 290 290 290 290 290 290 290 290 290 290 291 291 292 292 293 293 293 292 292 292 292
302 302 302 302 302 302 302 302 302 302 302 302 301 301 301 301 300 301 301 301 302 302 302 301 300 300 299 299 300 299 297 296 294 293 291 290 292 294 295 295 295 295 295 296 295 295 295 296 295 295 295 294 294 294 294 294 294 294 293 293 292 290 288 288 289 290 290 290 290 289 289 289 290 290 290 291 291 292 293 293 292 292 292 292 292
301 302 302 302 302 302 302 302 302 302 302 302 301 302 302 301 301 301 302 302 302 302 302 301 299 299 299 299 299 299 297 297 295 293 291 290 292 294 295 295 295 295 296 296 296 295 295 295 295 295 295 294 294 294 294 294 294 294 294 293 293 291 289 288 289 289 289 290 290 289 289 289 289 290 290 290 291 292 292 293 293 292 292 292 292
302 302 302 302 302 302 302 302 302 302 302 302 302 302 302 301 302 302 302 302 302 301 300 300 299 299 298 298 298 297 297 297 295 292 291 290 291 293 295 295 295 296 296 296 296 296 295 295 295 295 294 294 294 294 294 294 294 294 294 293 293 292 290 289 288 288 289 289 290 290 290 289 289 289 290 290 290 291 292 292 292 292 292 292 292
302 302 301 302 302 302 302 302 302 302 302 302 302 302 301 301 301 301 302 302 301 300 299 299 299 299 298 298 298 297 296 295 293 291 291 291 291 293 295 295 296 296 296 297 296 296 295 295 295 295 295 294 294 294 294 294 294 294 294 294 293 292 291 290 289 288 288 289 289 290 290 289 289 289 289 290 290 291 291 292 292 292 292 292 292
302 302 301 302 302 302 302 302 302 302 302 301 301 301 301 301 300 299 300 301 300 300 299 299 299 299 298 298 298 296 294 293 291 291 291 291 291 292 294 295 296 296 296 297 297 296 296 296 295 295 295 294 294 294 294 294 294 294 294 294 293 293 292 291 290 288 288 289 289 289 290 289 289 289 289 290 290 290 291 291 292 292 291 292 292
302 302 302 302 302 302 302 302 302 302 301 301 301 301 301 301 301 299 298 298 298 298 298 298 299 298 297 295 295 293 292 291 291 291 291 291 291 293 294 295 296 296 296 296 296 296 296 296 295 295 295 295 294 294 294 293 293 293 294 294 293 293 292 292 291 289 288 288 289 289 290 290 289 289 289 289 289 290 291 291 292 291 291 291 291
302 302 302 302 302 302 302 302 302 302 301 301 301 301 301 301 301 300 300 299 298 298 298 298 298 296 294 292 292 292 291 291 291 291 291 291 292 293 295 296 296 296 296 296 296 296 296 296 296 295 295 295 294 294 294 293 293 293 294 294 294 293 292 292 292 291 289 288 288 289 289 290 289 289 289 289 289 289 290 290 291 292 291 291 291
302 302 302 302 302 302 302 302 302 302 301 301 301 301 301 301 300 300 300 299 298 297 296 296 295 293 292 291 291 291 291 291 291 291 291 292 293 294 295 295 296 296 296 297 297 297 296 296 296 296 296 295 295 295 294 294 293 293 294 294 294 293 293 292 292 291 290 289 288 288 289 290 289 289 289 289 289 289 289 290 291 292 292 291 291
302 301 301 302 302 302 302 302 302 302 302 301 301 300 301 300 300 300 299 298 297 295 294 293 292 292 291 291 291 291 291 291 291 291 291 292 293 294 295 295 296 296 296 297 297 297 297 296 296 296 296 296 296 295 295 294 294 293 293 294 294 294 293 292 292 292 291 290 289 288 288 289 289 289 289 289 289 289 289 289 290 293 294 293 291
302 301 302 302 302 302 302 301 302 302 302 301 300 300 301 300 300 300 299 299 298 297 295 293 292 291 292 293 293 292 291 292 292 293 293 293 294 295 296 296 296 296 296 296 296 296 297 297 296 296 296 296 296 296 295 295 294 293 293 294 294 294 293 293 292 292 292 291 290 289 288 289 289 289 289 289 289 289 290 290 290 291 293 294 293
301 301 302 302 302 302 302 301 301 302 302 301 301 301 301 300 300 300 299 299 299 299 297 294 292 293 294 295 294 293 292 292 294 295 296 295 295 296 296 297 297 297 297 296 296 297 297 297 297 296 297 297 296 296 296 295 295 294 293 294 294 294 294 293 293 292 292 292 291 290 289 288 289 289 289 289 290 290 290 290 290 290 291 293 293
301 301 302 302 302 301 301 301 301 301 302 302 301 301 300 300 300 300 300 299 299 299 297 295 295 297 298 298 297 295 294 295 296 297 298 297 297 297 297 297 297 297 297 297 297 297 297 297 297 297 297 297 297 296 296 296 295 295 294 294 294 294 294 293 293 292 292 292 291 291 290 289 289 289 289 289 290 290 290 291 291 291 291 292 294
301 301 302 302 302 301 301 301 301 301 301 302 301 300 301 301 301 301 300 299 299 298 297 296 297 299 300 300 299 299 298 298 298 298 298 298 298 297 297 296 296 296 296 296 297 297 297 297 297 297 297 297 297 296 296 296 296 295 295 294 294 294 294 294 293 293 292 292 292 292 291 290 289 289 290 290 290 290 291 291 291 291 291 292 293
301 302 302 301 301 302 301 301 300 300 300 301 301 300 301 301 301 300 300 299 299 298 298 298 299 300 300 300 300 300 300 300 300 299 299 299 299 298 297 296 296 296 295 295 296 297 297 297 297 297 297 297 297 297 296 296 296 295 295 294 294 294 294 294 294 293 293 293 293 292 292 291 290 289 290 290 290 290 290 291 291 291 291 291 291
302 302 302 302 302 302 302 301 301 300 299 301 302 301 301 301 301 301 301 300 299 299 299 299 300 300 300 300 300 300 300 300 300 299 299 299 299 299 298 297 297 296 295 295 296 296 297 297 297 297 297 297 297 297 297 296 296 295 295 295 294 294 294 294 294 294 293 293 293 293 292 292 291 290 290 291 291 290 290 290 291 291 291 291 291
302 302 302 302 301 301 301 302 302 301 300 301 302 302 301 301 301 301 301 300 300 300 300 300 300 300 300 300 300 300 300 300 299 299 299 300 300 299 299 298 297 297 296 296 296 296 297 297 297 297 297 297 297 297 297 296 296 295 295 295 295 294 294 294 294 294 294 293 293 293 293 292 292 291 291 291 291 291 290 290 290 290 290 291 291
303 302 302 301 301 301 301 302 303 302 302 302 302 301 301 301 301 301 300 301 301 301 300 300 300 300 300 300 300 300 300 299 299 299 299 299 300 299 299 298 298 297 297 297 297 297 297 298 297 297 297 297 297 297 297 297 296 296 295 295 295 294 294 294 294 294 294 294 294 294 293 293 292 292 291 292 292 292 291 290 290 290 290 290 290
303 303 302 301 301 301 301 302 302 302 302 301 301 301 301 301 301 301 301 301 301 300 300 300 300 300 299 299 299 299 299 299 299 299 299 299 299 299 299 299 298 298 298 298 298 298 298 298 298 297 297 297 297 297 297 297 297 296 296 296 295 295 294 294 294 294 294 294 294 294 294 294 293 292 292 292 292 292 292 291 290 290 290 290 290
303 302 302 301 301 301 302 301 301 301 301 301 301 301 301 301 301 301 301 300 300 300 300 300 300 300 300 299 299 299 299 299 299 299 299 299 299 299 298 298 298 298 298 298 298 298 298 298 298 297 297 297 297 297 297 297 297 297 296 296 296 295 295 295 294 294 294 294 294 294 294 294 293 293 292 292 292 292 292 292 291 290 290 290 290
302 302 302 302 302 302 302 301 301 301 301 301 301 301 301 301 301 301 301 300 300 300 300 300 300 300 300 300 299 299 299 299 299 299 299 299 299 298 298 298 298 298 298 298 298 298 298 298 298 298 298 297 297 297 297 297 297 297 297 297 296 296 296 295 294 294 294 294 294 294 294 294 294 293 293 292 292 292 292 292 292 291 290 291 290
301 301 302 302 302 302 302 301 301 301 301 301 301 301 301 301 301 301 301 300 300 299 299 299 299 300 300 299 299 299 299 299 299 299 299 299 299 299 298 298 298 298 298 298 298 298 298 298 298 298 298 298 298 298 298 297 297 297 297 297 297 296 296 296 295 295 294 294 294 294 294 294 294 294 293 293 292 292 292 293 293 292 291 291 291
302 302 302 302 302 302 302 302 301 301 301 301 301 301 301 301 301 300 300 300 300 299 299 299 299 299 299 299 299 299 299 299 299 299 299 299 299 299 299 299 299 298 298 298 298 298 298 298 298 298 298 298 298 298 298 298 298 298 297 297 297 297 296 296 296 295 295 294 294 294 294 294 294 294 294 293 293 293 292 293 293 293 292 291 292
302 302 303 303 302 302 301 301 301 301 301 301 300 300 300 300 300 300 300 299 299 299 299 299 299 299 299 299 299 299 299 299 299 299 299 299 299 299 299 299 299 299 299 299 299 299 299 299 298 299 298 298 298 298 298 298 298 298 298 297 297 297 297 296 296 296 295 295 294 294 294 294 294 294 294 294 293 293 293 293 293 293 293 292 292
Wind_Speed
22 22 23 22 22 21 20 19 19 19 19 20 22 22 21 21 20 19 19 18 16 15 14 14 14 14 16 17 18 18 18 18 18 18 18 17 16 17 16 15 16 16 17 18 19 20 20 19 17 16 16 19 22 25 27 24 20 17 16 16 16 15 14 12 9 12 19 22 24 27 30 31 33 34 35 37 38 38 38 38 39 39 38 37 39
22 23 23 22 21 21 20 19 19 19 21 22 23 22 21 20 20 19 19 17 15 13 13 12 12 13 15 16 17 17 17 17 17 17 17 17 16 16 15 14 14 14 16 17 17 17 17 16 15 15 17 20 22 24 26 25 21 17 17 17 17 19 17 16 14 13 18 24 26 28 30 30 31 34 35 35 37 38 39 39 39 39 39 37 38
23 23 23 22 21 21 21 20 20 21 22 23 23 22 21 20 19 19 19 17 14 12 11 11 11 12 14 15 16 16 16 16 16 16 16 16 16 15 13 13 13 13 14 16 15 15 15 14 14 16 19 20 20 22 24 25 22 18 17 18 19 21 21 20 18 16 18 24 27 28 30 30 31 33 35 35 35 37 38 39 39 39 39 39 39
23 24 23 23 22 22 22 22 23 23 23 23 23 22 21 20 20 19 18 16 13 11 10 10 11 12 13 15 15 15 15 15 15 15 14 15 15 14 12 12 12 12 12 14 14 13 12 13 14 16 20 20 19 20 22 23 23 20 19 20 20 21 23 23 22 20 20 23 27 29 30 30 31 33 35 35 35 37 38 38 39 39 40 41 40
24 25 25 25 24 23 23 23 23 24 24 23 23 22 22 21 20 18 16 14 11 9 9 10 12 13 14 14 15 16 15 14 14 14 13 14 14 14 12 10 11 10 10 12 13 12 12 13 14 16 18 19 19 20 21 21 22 22 22 22 22 22 24 25 25 24 22 23 27 30 30 30 31 33 33 33 35 37 38 38 38 39 41 43 43
25 26 25 25 25 24 24 24 23 24 24 24 23 22 22 21 19 17 14 12 11 10 11 12 13 14 14 15 15 16 15 14 14 13 12 13 13 12 10 9 8 8 8 10 10 11 13 14 15 17 17 18 19 20 21 21 21 23 24 24 24 24 25 26 27 26 24 25 27 29 30 30 31 32 33 33 33 34 37 39 40 40 41 44 46
26 26 25 25 25 25 25 24 24 24 24 24 24 22 21 20 18 16 13 11 12 12 13 14 14 14 14 15 15 15 14 13 13 12 12 12 12 11 9 8 6 6 7 7 7 9 13 14 15 16 17 17 19 20 20 21 22 23 25 26 27 27 27 28 28 27 26 26 26 27 29 30 30 32 34 34 31 31 32 35 39 43 44 43 44
27 26 25 26 26 26 26 25 25 25 25 24 23 22 21 20 18 16 13 11 12 13 14 15 14 14 14 14 15 15 14 13 12 11 11 11 11 9 8 8 8 6 6 5 6 9 12 13 14 15 17 17 18 20 20 21 23 24 25 27 28 28 28 28 28 27 26 25 26 27 27 28 30 32 34 33 29 29 32 32 33 41 46 45 42
27 26 26 26 27 26 26 26 25 25 25 25 24 22 21 20 19 16 14 13 13 13 14 14 14 15 15 15 15 14 14 13 12 11 10 9 8 8 7 8 9 7 5 3 4 9 11 11 11 15 18 18 18 20 22 23 25 27 28 28 28 28 28 28 28 27 25 24 25 26 26 26 29 31 31 31 30 32 36 35 32 36 43 45 43
27 27 27 27 28 27 27 26 26 26 25 25 25 24 23 22 20 17 15 14 14 14 14 14 14 15 15 15 15 15 14 13 12 10 9 8 8 7 7 7 7 6 3 2 3 8 9 8 11 16 18 18 20 22 24 26 27 28 28 27 28 29 28 28 28 27 25 23 25 26 24 24 28 31 31 32 34 35 35 34 34 37 38 35 35
28 28 28 29 29 28 27 27 27 26 26 26 26 26 25 23 21 19 17 15 14 14 14 14 14 14 15 15 15 15 14 13 11 10 9 8 7 6 5 4 4 4 3 2 3 7 7 7 12 16 18 19 22 25 27 29 28 27 27 27 27 27 28 27 28 28 26 24 26 27 24 24 30 33 32 34 36 35 35 35 34 34 31 24 23
29 29 29 30 29 29 28 28 28 27 27 27 26 26 25 24 22 20 18 16 15 15 15 14 14 14 14 15 15 15 13 11 9 8 7 6 5 4 4 4 4 6 4 4 3 6 6 8 14 16 18 21 24 27 29 29 29 28 28 28 27 28 28 27 27 29 28 27 27 27 27 27 31 33 34 36 37 37 37 36 33 31 30 25 23
30 30 30 30 30 29 29 29 28 28 27 27 26 26 25 24 22 20 18 15 15 16 16 16 15 14 14 15 15 14 13 10 8 6 5 4 4 4 4 4 5 7 5 5 4 5 6 10 14 15 18 22 24 28 30 29 29 29 29 29 30 29 30 29 29 29 30 28 27 29 31 31 32 35 38 38 39 38 36 34 34 33 31 30 32
30 30 31 31 30 30 30 30 29 28 28 28 27 26 24 23 22 20 18 17 16 17 18 18 18 17 16 15 14 13 11 9 7 5 5 4 3 4 4 4 5 7 6 5 4 4 7 11 15 16 19 22 24 27 29 28 29 30 30 31 31 32 31 31 32 32 31 31 30 31 34 35 35 37 41 40 39 38 35 35 37 36 34 35 38
30 31 31 31 31 31 31 30 30 29 28 28 27 26 25 23 22 21 19 17 16 17 18 19 20 19 18 16 15 13 10 8 6 4 3 3 4 5 4 4 4 6 7 6 4 4 7 12 15 17 19 21 24 26 26 27 29 30 31 32 32 33 32 32 33 32 32 33 33 33 35 37 38 39 40 40 39 38 39 39 40 39 38 37 35
30 31 32 31 32 32 32 31 30 29 29 28 28 27 26 24 23 22 20 18 17 17 19 20 20 20 19 17 16 15 12 9 6 4 2 2 3 5 6 5 4 5 6 7 6 5 7 11 14 16 18 21 23 23 25 27 28 30 31 33 33 33 33 33 32 30 31 33 34 35 35 36 38 39 39 40 39 41 42 40 39 39 36 31 29
31 32 33 32 33 33 33 32 31 30 30 29 29 28 27 25 24 23 22 20 19 18 19 21 21 20 19 17 16 16 13 10 8 6 4 4 5 6 6 6 5 4 5 6 6 5 7 10 12 15 18 20 21 23 25 26 28 30 31 32 33 33 33 34 32 30 32 33 34 36 37 37 39 39 39 40 40 43 42 37 37 37 31 22 19
32 33 33 33 33 34 33 33 32 31 31 30 30 28 27 26 25 23 22 22 20 19 19 19 19 17 17 16 16 15 14 12 9 7 6 5 6 7 6 5 5 4 4 4 4 5 7 9 12 16 18 19 20 23 25 26 28 29 30 32 32 32 34 35 34 33 34 35 36 37 38 39 40 40 40 40 41 43 40 37 39 38 31 25 22
33 33 33 33 34 35 34 33 33 32 32 31 30 29 27 26 25 24 23 22 21 20 19 18 17 15 13 13 13 13 13 12 10 8 6 6 6 6 6 6 6 6 6 5 5 7 9 10 13 16 17 17 20 23 25 25 27 28 29 31 31 31 33 34 33 34 35 35 37 38 39 40 40 40 40 41 42 43 41 40 41 38 32 32 32
33 33 33 33 34 35 34 34 34 33 33 32 30 29 26 24 24 24 24 22 21 21 20 18 16 14 12 11 10 11 11 11 9 8 6 6 6 6 6 8 9 9 9 8 7 8 10 12 14 15 16 17 20 23 24 25 25 27 29 30 30 30 32 32 31 33 34 34 36 37 39 40 41 41 41 41 44 45 43 42 41 38 34 35 36
33 33 33 34 35 35 35 35 34 33 33 32 30 28 25 24 24 24 24 23 22 21 20 17 16 14 13 11 9 9 8 9 8 7 6 6 6 7 7 8 10 9 9 8 9 10 12 14 14 15 16 17 19 22 23 24 25 26 28 28 28 29 30 31 32 33 33 34 36 37 38 40 42 42 42 42 45 46 43 42 41 40 38 36 36
33 34 34 34 35 36 36 35 34 33 32 31 30 27 26 25 24 24 24 24 22 21 19 17 16 14 13 12 10 8 7 7 6 6 5 6 6 6 7 8 9 9 8 9 9 11 13 14 14 15 15 16 19 22 23 24 26 27 27 28 28 30 30 30 32 33 34 35 35 36 38 39 40 42 42 43 45 45 43 43 43 41 40 38 35
34 35 35 35 36 36 36 35 34 34 33 31 29 28 27 27 26 25 24 23 22 20 20 18 17 16 14 13 11 9 7 6 5 4 5 6 6 6 7 9 9 9 9 9 10 11 12 12 13 13 14 16 20 21 22 25 26 27 28 29 29 30 31 31 32 33 34 34 35 36 38 38 39 40 41 42 44 45 44 44 44 42 41 39 35
35 35 35 36 36 35 35 36 35 34 33 31 29 29 29 28 28 27 25 24 22 21 21 20 19 18 17 15 14 12 9 7 5 3 4 5 5 6 8 8 8 8 8 8 9 10 11 11 12 12 12 16 19 20 21 25 26 27 30 31 31 31 31 32 32 32 33 34 34 34 37 39 39 40 41 42 43 43 44 45 44 42 41 39 34
35 35 35 35 35 35 35 35 35 34 33 32 31 30 30 29 29 28 27 25 24 22 22 21 20 19 19 18 17 15 12 8 6 4 3 3 4 6 8 8 7 7 7 7 8 9 10 10 10 10 11 15 18 19 21 24 26 28 30 32 33 32 31 32 32 32 32 32 33 34 36 39 40 41 42 43 43 42 43 45 44 42 41 39 35
34 34 34 35 35 35 35 35 35 34 33 32 31 30 29 29 29 29 28 28 26 23 22 23 22 21 20 20 19 18 15 10 7 5 3 3 4 6 7 7 6 6 6 7 7 8 8 8 8 9 11 14 17 19 20 23 26 28 29 32 34 33 32 32 32 32 31 32 33 35 36 39 41 42 44 45 43 42 42 43 43 43 42 39 37
34 33 34 34 34 35 35 35 35 35 33 32 30 28 27 28 29 29 29 29 27 25 23 23 23 22 21 21 21 21 18 12 8 6 4 5 6 7 7 6 5 5 6 6 6 7 8 8 8 9 10 13 16 18 19 21 25 28 30 31 33 34 32 30 30 31 31 32 34 35 38 40 42 43 44 44 43 42 42 42 41 42 42 39 35
33 32 33 33 34 35 35 35 35 35 33 32 30 28 27 28 28 29 29 28 27 25 23 21 21 21 21 21 23 23 19 14 10 7 5 6 7 7 6 4 3 4 5 6 6 7 8 8 8 8 10 12 15 18 20 21 24 27 29 30 32 34 32 29 29 31 32 33 34 36 38 40 41 42 42 43 42 43 43 41 40 41 42 39 34
33 32 32 33 33 34 35 35 35 34 33 31 29 27 26 26 26 26 26 25 23 22 21 21 21 21 19 20 23 24 21 16 10 7 6 7 7 7 5 3 1 3 6 7 6 7 9 9 8 9 10 13 16 18 20 21 22 25 28 29 30 33 33 31 30 31 33 33 34 35 37 38 39 41 41 41 42 42 42 41 40 39 40 38 34
32 32 32 33 33 34 34 34 34 34 33 31 30 27 25 25 26 25 23 22 22 21 20 21 22 20 18 18 19 18 16 13 10 7 7 7 7 7 5 2 1 4 7 8 6 6 9 9 9 9 10 13 15 17 18 20 21 23 26 27 28 31 33 31 29 30 32 32 33 35 36 36 37 39 39 39 41 42 42 41 39 38 37 35 32
32 32 32 33 34 35 35 34 34 33 32 32 30 27 25 25 24 23 22 20 20 20 20 21 20 19 17 17 16 14 12 11 9 8 7 7 7 7 6 3 2 4 7 7 5 5 8 9 8 8 9 11 13 15 16 17 19 21 24 25 26 28 31 31 29 29 30 32 33 34 35 36 36 37 38 38 39 40 41 41 39 38 36 33 30
33 33 33 34 35 36 35 34 33 33 32 31 30 28 26 23 21 20 20 20 20 21 21 20 19 18 17 15 15 14 14 12 10 9 8 7 7 7 7 4 3 4 6 6 4 4 6 8 7 8 9 10 12 14 14 16 17 19 21 23 23 25 28 30 29 28 29 30 32 33 35 35 35 36 37 37 37 38 38 39 39 37 36 34 33
35 34 33 33 35 35 34 34 34 33 32 32 30 28 27 25 21 19 18 19 20 22 21 19 19 17 16 15 14 13 13 12 11 10 9 7 7 7 7 5 4 4 5 5 5 4 5 6 6 7 8 9 11 13 14 15 16 17 19 20 21 22 25 28 29 29 28 29 30 32 33 34 35 35 36 37 36 36 36 37 37 36 33 32 33
36 36 35 35 35 34 34 34 34 33 32 32 30 29 27 26 24 22 21 20 20 20 19 19 18 16 15 15 14 13 12 11 11 10 9 8 7 7 7 6 5 5 4 4 5 6 6 7 6 6 8 9 10 12 14 15 16 16 18 19 20 19 21 25 28 29 28 28 28 30 31 33 34 35 35 35 36 35 35 36 36 34 32 30 30
36 36 37 37 36 35 34 34 33 32 31 31 30 29 28 27 27 26 24 23 21 21 20 19 19 17 16 15 15 14 13 12 11 11 11 10 8 7 7 7 6 6 6 5 6 7 8 8 7 7 8 9 10 12 14 15 15 15 17 19 20 19 19 23 26 28 28 27 27 28 29 31 33 34 33 33 34 34 34 34 34 33 32 30 29
35 36 36 37 37 35 34 33 32 32 31 31 31 31 30 29 29 28 25 23 22 22 21 21 20 18 17 16 16 15 14 13 13 13 12 11 10 9 8 8 8 7 8 7 7 7 9 9 8 8 9 10 11 12 13 14 14 14 15 17 19 18 18 20 23 26 27 27 27 26 27 29 31 33 33 33 33 33 32 32 33 33 32 31 29
36 36 37 37 36 35 34 33 32 32 32 32 32 31 29 29 28 27 25 24 23 21 21 21 21 20 19 19 17 16 16 15 15 14 14 14 13 12 11 10 9 10 10 9 8 9 10 10 9 9 10 11 11 12 13 14 14 14 14 16 18 18 17 17 20 23 25 26 26 26 26 27 28 30 31 32 33 34 33 33 32 32 32 32 30
37 37 38 37 36 35 33 32 31 30 31 31 31 30 29 30 29 28 27 26 24 22 21 22 23 22 21 20 19 18 18 18 17 16 16 16 16 15 13 12 12 13 13 12 11 11 11 10 10 10 11 12 12 13 13 14 14 14 14 14 16 17 16 16 18 20 23 25 25 25 24 25 26 27 29 30 32 32 33 33 33 32 31 32 31
34 35 38 38 36 35 34 33 32 31 30 30 29 30 31 31 29 28 27 26 25 24 23 23 24 24 22 21 20 21 21 21 20 19 18 17 17 17 16 15 16 16 16 15 13 13 12 12 11 11 12 13 13 13 14 14 15 15 14 13 14 16 16 16 17 18 21 23 24 24 23 23 24 25 26 28 30 31 32 33 33 32 30 29 28
31 33 36 37 36 34 34 34 33 32 31 31 31 31 31 32 30 28 27 26 26 26 26 26 26 25 23 22 22 22 23 23 23 21 20 19 18 18 18 18 17 18 18 17 16 15 14 13 12 13 14 14 14 14 15 15 15 15 15 14 13 14 15 15 15 16 18 20 22 22 22 22 23 23 24 25 27 29 30 31 32 32 30 28 27
31 33 35 35 34 34 34 33 33 32 32 32 33 32 32 32 31 28 26 26 26 27 27 28 28 25 23 23 22 22 24 24 23 22 22 21 19 19 19 18 17 17 18 18 17 16 15 15 14 15 15 15 15 15 15 16 16 16 16 14 13 13 14 14 14 14 15 18 20 21 21 21 21 22 23 23 24 26 27 29 30 31 30 29 27
31 33 34 34 32 32 32 32 33 32 29 29 31 33 33 33 31 29 27 27 27 28 29 29 28 26 24 22 22 23 24 24 24 24 24 23 22 21 20 18 18 18 17 17 15 14 15 15 15 16 17 17 16 16 16 17 17 17 17 16 14 13 13 13 13 13 14 15 18 20 21 20 19 19 20 22 22 23 25 26 27 28 29 30 29
32 32 34 34 33 32 31 30 31 31 30 28 29 31 33 32 31 29 29 29 29 29 30 30 28 26 24 23 23 24 24 24 24 24 24 24 23 23 22 20 18 18 18 17 15 14 14 15 16 17 18 18 18 18 18 18 18 17 17 17 15 14 13 13 13 12 13 14 16 18 19 20 19 17 18 20 20 21 22 23 24 26 27 28 29
32 33 35 36 35 33 31 28 26 27 30 31 30 29 30 30 29 29 29 29 29 30 31 29 26 24 23 23 24 25 25 24 24 24 24 23 24 24 23 21 19 18 17 16 15 16 16 17 18 19 19 19 19 20 20 19 19 18 18 18 17 16 15 14 13 12 12 14 15 16 18 20 19 17 16 17 19 20 21 21 23 24 24 25 26
30 31 32 32 32 31 29 28 26 25 25 27 29 28 28 28 28 27 27 28 28 30 30 29 25 22 22 22 23 24 24 23 22 22 22 22 23 23 22 21 20 19 17 16 15 16 18 20 21 21 21 21 21 21 21 21 20 20 19 19 19 18 16 15 14 13 12 13 14 15 17 19 19 17 15 15 16 18 19 20 20 21 22 23 23
28 27 29 29 29 28 28 28 30 28 24 24 26 28 28 27 26 24 23 24 26 29 29 27 24 23 22 21 21 21 21 21 21 21 21 22 22 22 22 22 21 20 19 17 18 18 19 21 23 24 24 24 23 23 23 23 22 22 21 20 20 19 18 16 15 14 13 14 14 14 15 17 18 17 16 14 13 15 16 17 18 18 19 21 21
28 28 28 28 27 27 27 27 29 31 29 26 26 28 28 28 26 25 23 22 24 26 27 26 25 24 24 23 22 22 22 22 22 22 23 23 23 22 23 23 24 23 22 21 21 21 21 22 24 25 26 26 25 25 25 24 24 24 23 22 22 21 19 17 17 16 15 15 15 15 15 16 17 17 16 14 13 13 14 15 16 16 16 18 19
30 29 29 27 26 27 26 25 25 27 28 27 27 27 28 28 28 27 26 25 24 24 25 26 27 27 27 26 26 25 25 25 26 26 26 26 25 25 25 25 25 26 25 24 24 24 24 25 25 26 28 28 28 27 27 27 26 26 26 25 24 23 20 18 18 17 16 16 16 16 16 16 16 16 16 15 14 13 13 14 15 15 15 16 18
31 30 29 28 26 26 27 25 23 23 24 25 25 27 28 28 28 28 28 28 26 26 25 25 25 26 25 25 25 25 25 26 26 27 28 28 28 27 27 27 28 28 28 28 27 27 27 28 27 28 28 29 30 30 30 29 29 29 29 29 28 26 22 20 19 18 17 16 17 17 17 16 16 16 15 15 14 14 13 13 14 14 14 14 16
31 29 28 27 27 27 28 28 27 26 25 25 25 27 29 30 30 30 29 29 28 28 27 26 26 25 25 25 25 25 25 26 27 27 28 28 27 27 28 28 28 28 29 29 29 29 29 30 29 29 29 30 30 30 31 31 31 31 31 30 31 30 26 23 20 20 19 18 18 18 18 17 17 16 15 15 14 13 13 12 13 13 13 13 14
28 26 25 25 27 29 30 30 30 30 29 28 28 28 28 29 30 30 29 29 29 29 29 28 28 28 28 28 27 27 28 28 29 30 30 30 29 29 30 30 29 29 29 28 29 29 29 29 29 30 30 29 27 27 27 27 27 28 29 29 30 31 30 27 24 22 20 19 19 19 20 20 19 17 15 14 14 13 13 12 12 13 13 12 13
Wind_Direction
154 153 152 150 147 145 143 142 141 140 139 138 133 130 129 129 129 131 132 132 132 131 127 126 126 126 126 122 116 109 106 102 98 96 92 88 87 88 86 81 78 72 64 59 54 51 52 52 49 42 33 29 26 21 19 21 26 32 32 23 17 11 356 337 310 303 321 329 328 330 335 336 336 337 337 335 335 336 335 334 335 334 333 331 330
157 155 153 152 150 147 145 144 143 141 139 137 135 134 133 132 135 136 133 132 133 132 130 132 133 131 128 125 120 113 108 105 103 100 95 91 88 86 84 81 79 71 61 57 54 51 50 51 49 39 28 25 24 21 19 21 24 25 23 16 6 2 355 338 320 305 311 323 326 328 332 333 331 333 334 332 331 331 331 332 332 332 331 329 327
159 157 154 151 149 148 146 145 144 143 139 138 137 137 135 136 139 138 134 131 130 129 129 132 133 131 128 127 126 120 113 110 108 104 100 97 93 89 83 78 76 70 63 59 56 53 51 49 45 34 23 20 20 21 20 21 23 20 14 9 1 356 354 344 330 314 306 315 321 322 326 327 326 328 330 329 328 328 327 327 329 328 328 327 325
158 156 153 150 149 148 147 147 147 144 141 139 139 139 139 140 139 137 133 130 127 124 120 119 121 121 122 128 131 127 120 115 112 108 103 102 100 95 88 79 72 69 66 62 60 56 49 44 39 26 17 16 16 17 17 19 20 18 11 6 360 354 351 347 338 325 310 308 314 317 319 321 322 324 326 326 325 325 324 323 325 325 325 325 324
158 156 153 150 150 150 149 149 149 146 145 143 140 140 142 142 140 137 135 132 128 125 118 115 115 114 116 125 133 131 125 118 116 111 104 104 104 97 91 81 68 67 71 68 64 57 46 40 34 21 14 15 14 10 10 12 13 12 8 4 360 353 347 344 339 330 317 308 310 316 317 317 319 322 324 324 322 322 322 321 322 322 323 323 322
159 157 155 152 152 152 152 152 151 149 149 146 144 144 145 144 141 138 137 133 128 125 122 118 115 112 114 122 131 133 128 121 118 114 106 107 106 97 92 85 67 70 82 78 67 51 40 37 30 20 16 13 10 6 6 6 6 5 2 360 356 351 346 343 338 331 323 315 312 314 317 318 318 320 323 325 321 319 320 320 320 320 321 321 321
161 158 157 156 155 155 154 153 152 152 150 148 148 147 145 144 140 137 136 130 123 122 121 119 116 114 115 121 127 132 130 124 121 116 110 108 106 97 94 88 72 84 103 90 64 44 35 33 28 21 16 13 10 10 10 8 5 3 360 356 353 349 345 341 337 331 325 320 317 316 317 318 318 318 322 325 322 319 319 318 317 319 320 319 318
161 160 159 158 158 157 156 155 154 153 152 150 149 147 144 143 140 137 135 125 117 118 122 122 120 118 118 121 125 129 130 126 123 119 115 112 107 101 98 86 70 88 125 111 58 43 35 31 28 21 16 15 16 17 16 10 6 2 358 354 350 347 343 340 336 331 327 323 320 319 319 319 320 320 323 326 324 321 322 317 312 315 317 316 315
163 162 162 161 160 159 158 157 156 154 153 152 151 149 147 145 141 139 134 120 114 117 121 124 123 122 121 121 124 128 129 124 121 121 120 119 112 103 97 83 67 77 122 128 58 44 36 33 29 20 17 19 21 20 16 11 5 359 356 354 350 346 342 339 335 331 328 325 322 323 322 320 321 322 324 326 323 320 320 317 311 311 313 311 311
165 164 163 162 162 161 160 158 157 156 154 153 153 152 150 147 143 136 126 114 111 118 122 122 123 123 122 122 124 125 124 122 120 120 122 124 120 110 101 87 71 67 85 114 63 43 39 39 28 19 20 22 20 15 10 7 4 360 358 356 352 347 342 337 335 332 329 326 323 324 323 319 322 323 322 322 322 320 320 318 314 313 313 310 309
166 166 165 164 163 163 162 160 159 156 153 152 152 153 152 148 142 134 123 111 108 116 121 120 119 120 121 122 123 122 120 119 117 119 123 126 129 127 114 103 84 63 71 139 78 48 45 39 26 21 21 19 12 7 4 2 2 2 2 1 358 354 346 338 334 332 330 326 323 323 321 318 321 324 322 322 323 321 320 319 316 314 313 311 309
167 168 167 166 166 166 164 162 160 158 156 153 151 152 152 148 143 138 129 115 108 112 117 117 117 120 122 122 121 120 118 117 116 123 128 128 139 145 122 105 85 61 78 135 89 54 50 33 23 19 16 10 3 360 360 360 2 3 3 2 2 1 357 350 342 337 333 327 324 323 322 320 322 323 324 324 322 321 321 319 317 313 310 307 305
169 169 168 168 169 168 166 164 163 162 160 158 154 152 152 149 146 143 136 122 111 110 111 112 114 118 123 123 121 121 121 121 124 135 144 139 141 145 125 102 82 66 85 135 110 58 45 26 16 8 4 2 360 359 359 0 3 3 3 3 3 2 3 1 356 348 340 332 326 324 325 324 321 321 324 324 322 321 321 319 316 312 307 305 304
171 170 169 170 171 169 167 165 164 163 162 161 159 156 154 152 150 148 142 131 118 112 112 112 110 112 118 121 124 127 126 126 131 146 166 178 178 160 138 113 93 77 87 125 120 58 37 20 6 357 357 1 1 1 1 2 3 2 1 3 3 2 2 1 358 354 347 340 333 327 329 328 323 322 325 326 323 321 320 318 316 312 307 306 305
172 171 171 172 172 170 168 165 163 163 162 162 161 159 157 157 155 153 148 139 126 117 116 115 110 110 112 116 121 124 126 131 146 165 180 200 208 193 173 145 117 90 82 92 91 56 30 11 360 356 359 3 5 5 4 4 3 1 1 2 1 1 2 360 356 352 348 344 339 333 332 331 328 326 327 327 325 323 322 319 316 314 311 310 309
173 173 173 174 173 171 169 166 165 165 164 164 163 161 159 159 158 156 152 146 136 124 119 117 114 111 111 111 113 113 115 121 134 146 129 101 154 178 179 168 144 104 85 82 75 56 25 5 359 360 2 5 8 9 8 5 4 2 1 1 0 1 1 358 355 353 350 348 344 340 337 336 334 332 331 330 329 328 326 323 321 321 318 314 313
176 175 175 175 175 173 171 169 167 167 166 165 164 163 161 160 160 160 157 153 147 136 125 120 116 112 109 108 105 104 104 105 104 102 93 90 108 132 153 164 155 121 97 84 67 44 24 11 5 4 4 6 10 12 10 7 6 5 2 360 359 359 358 356 355 356 356 352 349 346 344 343 341 338 336 335 335 334 330 326 325 325 320 313 316
177 177 177 177 176 175 173 172 170 169 168 166 164 164 164 163 164 165 163 159 156 149 138 129 123 117 111 105 99 95 95 94 92 90 89 89 96 105 119 140 144 125 106 90 60 39 34 25 15 9 7 10 13 14 13 9 8 7 3 0 358 356 355 354 353 354 355 353 352 351 349 347 344 341 339 338 338 339 335 329 327 324 317 313 315
179 178 178 178 177 176 175 174 173 171 169 167 165 162 162 164 167 169 168 165 162 157 151 144 137 132 125 114 103 94 90 89 89 88 88 86 81 83 95 108 105 96 94 94 76 53 41 30 22 16 13 14 15 15 15 12 10 9 5 2 358 354 353 353 351 350 350 350 350 349 348 348 345 342 341 340 341 342 338 333 329 324 317 315 314
180 179 178 178 177 177 177 176 175 173 170 169 166 163 163 165 167 170 171 170 164 159 156 153 150 149 146 136 120 102 91 88 89 88 84 80 66 59 76 93 91 87 88 84 65 46 35 28 24 20 16 16 16 16 17 15 13 11 9 5 359 353 352 353 353 352 350 348 349 348 347 347 346 344 342 341 342 343 339 336 334 328 322 319 315
180 179 179 178 177 178 178 177 177 175 173 170 167 166 167 166 165 165 167 167 164 161 162 162 161 160 160 155 143 122 101 89 90 89 81 70 54 45 66 91 93 88 82 69 49 34 28 24 22 20 17 17 18 18 18 18 16 14 12 8 2 358 356 356 355 355 354 351 350 350 348 348 347 345 344 342 342 341 339 339 339 336 332 327 320
180 179 179 178 178 179 179 179 179 178 175 172 169 168 171 172 170 166 165 167 167 168 171 174 173 172 172 171 163 146 127 104 92 89 76 61 50 51 73 94 95 85 73 60 45 33 26 21 19 18 18 20 21 20 19 19 19 17 13 10 7 4 3 1 359 358 356 353 351 350 349 348 346 344 344 343 341 340 340 342 343 342 339 336 330
180 179 178 178 179 181 181 181 180 179 177 174 172 172 175 179 180 178 176 175 176 179 182 185 186 184 183 184 179 166 152 135 113 94 73 60 57 72 90 95 88 75 62 51 40 30 24 19 17 18 20 21 22 21 20 20 19 18 16 12 10 8 7 5 2 359 356 354 352 350 349 347 345 343 343 342 341 342 344 346 346 345 345 344 343
179 178 178 179 181 182 183 182 181 180 178 177 176 177 181 186 187 187 186 184 185 189 192 194 196 194 191 191 188 180 173 164 147 109 75 69 78 96 102 96 84 73 59 46 34 25 19 15 15 19 22 22 21 20 19 20 20 19 17 15 12 11 9 6 2 359 356 354 352 349 348 347 345 343 342 343 344 346 348 349 350 349 349 351 354
178 177 178 180 181 182 182 181 182 182 180 179 180 182 185 188 190 192 193 192 193 197 201 202 203 201 198 198 194 189 186 181 166 134 91 86 108 116 110 98 85 75 59 42 32 25 20 16 17 22 22 20 21 19 16 18 19 18 17 16 14 12 10 7 3 359 356 353 350 349 348 347 347 346 347 348 350 351 351 351 352 353 355 358 1
177 177 179 181 181 181 180 180 182 182 182 183 185 187 189 192 193 194 195 196 199 204 208 209 209 207 205 203 198 192 190 189 178 155 127 125 135 129 117 102 85 72 54 41 35 30 25 21 19 22 22 21 20 17 14 14 17 17 17 16 15 14 11 8 4 360 356 353 351 350 349 349 351 352 353 354 353 353 353 352 353 355 358 0 4
177 178 179 180 180 180 179 179 181 182 184 186 188 190 192 193 193 193 195 198 202 207 210 211 212 210 208 204 197 193 193 193 184 171 159 154 151 138 122 106 86 70 53 43 38 31 25 21 18 17 20 20 18 16 13 11 13 15 15 14 14 14 13 10 7 4 360 356 355 353 353 354 355 355 355 356 355 355 356 356 356 357 359 2 5
178 179 179 179 179 179 179 179 181 182 184 187 190 190 190 191 192 194 196 199 203 206 209 211 208 203 199 196 192 191 196 199 190 182 180 173 163 149 133 114 84 53 32 23 27 26 18 15 16 15 15 15 13 12 12 10 10 12 12 11 11 13 13 12 10 9 6 3 0 358 357 357 357 356 356 356 356 357 358 359 360 360 1 5 9
178 179 179 179 178 179 179 180 181 182 184 188 191 192 193 196 198 199 201 205 208 212 216 213 202 193 191 192 192 193 198 200 195 191 191 184 174 164 153 136 51 9 359 357 10 22 16 10 11 12 12 13 12 10 10 8 7 8 10 9 8 11 13 13 11 9 8 6 3 0 358 358 358 358 358 357 356 358 360 2 2 2 4 7 8
177 178 178 178 178 178 178 180 181 183 185 188 190 193 196 200 203 205 210 216 221 222 219 209 200 197 198 198 199 204 205 201 199 203 201 190 182 179 179 184 334 342 345 346 355 12 13 7 6 10 11 11 10 10 8 6 3 4 6 5 5 9 12 13 12 10 9 8 7 4 1 359 358 359 358 356 356 358 1 3 4 4 6 8 6
177 178 179 179 179 178 178 179 181 184 187 189 191 194 197 200 206 213 218 222 220 212 205 203 202 204 206 202 201 206 209 209 214 216 206 194 189 190 196 212 290 323 334 340 345 1 6 2 2 9 10 6 7 8 6 4 2 0 0 1 2 6 10 12 13 12 10 10 10 8 5 2 360 359 359 358 357 358 1 3 5 5 6 7 7
179 179 180 180 179 178 179 180 182 184 187 190 194 196 196 197 202 209 212 213 206 197 195 200 202 203 208 212 210 210 212 216 219 215 203 199 199 198 204 224 275 306 323 331 328 341 356 355 354 2 3 358 360 3 2 2 0 358 357 355 356 2 8 11 12 12 12 12 11 9 7 5 2 2 2 2 0 360 1 3 5 5 4 5 7
181 180 179 179 178 179 180 181 183 186 189 192 195 196 195 193 188 185 186 189 189 188 191 196 197 200 211 220 223 222 219 214 211 208 204 204 207 206 210 225 260 286 304 317 312 308 328 338 341 348 351 351 353 355 356 357 356 355 355 352 351 355 2 7 9 11 12 13 13 11 10 8 5 5 5 5 4 2 2 3 4 5 5 5 5
183 182 181 180 178 180 181 182 184 188 192 196 196 194 194 192 186 179 173 173 177 184 189 193 199 207 216 219 219 218 213 208 207 207 206 208 212 213 211 218 240 259 274 299 304 296 301 312 320 330 338 341 345 347 350 352 352 352 352 350 348 349 355 2 8 10 10 12 13 13 12 11 9 7 5 6 7 6 5 5 4 5 6 6 5
184 184 183 181 180 181 183 184 187 190 194 196 196 195 194 193 190 187 184 183 185 191 196 201 207 213 217 216 214 211 209 209 208 206 207 210 214 215 217 221 230 240 252 275 289 288 290 295 298 309 322 331 336 340 343 347 348 348 349 348 346 344 348 358 6 8 9 11 13 13 13 13 12 11 8 7 8 7 5 5 5 5 6 6 7
183 183 183 182 182 183 184 186 189 193 195 197 198 197 195 193 193 194 195 196 199 203 207 210 211 213 214 214 211 208 208 209 209 208 210 214 216 220 226 228 231 239 251 264 274 277 282 285 286 294 308 319 326 332 337 341 344 344 344 345 345 343 344 352 2 6 7 8 10 13 14 13 13 13 12 10 10 9 7 7 7 8 8 8 10
183 183 182 183 184 184 186 189 191 194 197 198 196 195 194 196 198 200 201 203 207 210 213 212 210 211 213 213 210 207 207 207 210 212 214 217 221 228 232 234 238 247 255 263 271 276 279 279 276 280 295 309 317 323 330 335 338 339 339 340 343 342 340 345 356 4 6 6 7 10 13 13 13 14 13 11 11 10 10 10 10 11 11 12 13
186 185 183 183 184 186 187 189 192 196 198 198 196 195 197 202 205 206 206 208 211 215 218 216 212 212 213 211 208 208 209 211 215 217 218 221 226 231 235 239 245 252 256 262 270 276 277 275 269 271 285 301 310 315 322 329 334 336 334 334 338 341 338 338 347 358 4 5 5 7 10 13 14 14 14 14 12 11 11 12 12 12 12 13 14
186 186 184 185 186 187 188 190 193 196 198 198 200 202 205 206 208 210 212 214 216 219 221 219 216 214 214 211 210 211 213 217 221 223 225 227 230 234 239 244 249 253 257 261 266 270 271 271 268 268 278 292 302 308 314 320 327 332 331 328 330 336 337 335 339 351 1 4 3 3 6 10 13 14 15 15 15 14 14 15 15 14 13 12 14
184 185 186 186 187 189 190 192 195 198 200 202 206 208 209 210 212 214 216 218 220 222 223 222 219 217 217 218 218 218 219 222 226 230 232 234 234 236 241 245 250 256 260 261 263 265 267 268 268 268 275 285 295 302 308 313 319 324 326 324 322 327 333 333 332 340 354 1 1 0 2 5 10 13 15 16 16 16 17 18 18 19 18 16 16
184 185 186 187 189 192 193 194 198 201 204 207 209 210 210 212 215 217 218 220 223 224 225 225 225 224 224 226 227 229 230 232 234 237 240 240 238 238 241 247 254 261 264 263 263 264 266 267 267 268 273 280 288 295 302 308 311 314 317 319 317 318 324 327 325 329 342 354 359 358 358 360 5 10 13 15 17 18 20 21 23 23 24 22 19
184 185 186 187 190 193 197 200 203 205 208 210 209 210 212 213 215 218 221 223 224 226 227 229 231 232 231 231 232 235 237 239 241 244 246 247 246 244 245 251 258 264 268 269 267 267 268 268 269 271 273 277 283 290 297 304 307 306 307 309 310 310 315 320 320 321 330 343 352 356 355 355 359 6 11 13 15 18 20 22 23 25 25 24 22
188 189 190 191 193 196 201 206 209 210 212 213 212 213 215 216 218 221 225 227 227 228 230 232 235 236 235 233 232 235 239 242 245 249 252 253 251 249 249 256 263 268 272 273 270 267 268 270 271 272 273 276 281 287 294 299 302 300 300 303 305 305 308 313 315 315 320 331 342 349 352 351 352 358 6 11 13 15 18 20 22 24 24 24 23
189 192 193 194 196 199 203 206 209 211 213 216 217 217 215 214 216 220 224 226 227 227 228 231 234 236 234 232 232 235 240 244 247 251 254 254 252 250 251 257 264 269 273 274 270 265 266 268 269 271 274 277 281 285 290 294 296 296 298 301 302 301 301 306 309 309 311 318 329 339 346 347 348 350 358 6 8 10 13 16 19 21 22 22 22
189 191 194 195 198 201 204 207 211 213 215 218 219 217 213 212 215 219 222 224 225 225 226 229 233 236 236 235 235 237 241 244 248 252 254 255 255 254 254 257 263 268 271 271 266 261 261 264 266 268 273 277 279 283 288 291 292 293 295 296 297 297 298 300 302 303 302 307 316 327 336 341 344 345 347 354 360 3 7 11 14 15 18 19 19
188 193 197 198 199 201 206 211 216 220 222 222 219 213 210 212 215 219 223 226 226 225 226 228 233 236 238 239 239 240 242 246 250 255 259 260 260 259 258 259 262 265 266 264 261 259 260 262 264 266 270 274 277 281 286 289 290 290 291 291 292 294 296 296 296 296 296 298 305 315 324 332 337 340 339 341 348 354 359 4 7 9 11 12 14
185 192 197 198 198 200 206 214 219 222 224 224 221 216 215 216 217 220 224 227 228 229 229 230 233 237 241 243 244 246 248 252 256 260 263 264 264 263 263 263 263 263 263 261 259 259 259 261 263 265 267 271 275 279 284 287 288 288 288 288 289 290 292 293 293 293 293 294 296 302 312 321 328 333 335 334 334 337 343 350 356 360 2 4 7
185 192 199 204 203 204 208 213 216 216 216 219 221 223 223 223 224 226 229 231 232 234 236 237 240 243 246 249 251 253 254 257 259 261 263 265 266 266 266 266 266 265 264 261 260 261 261 262 263 264 266 270 273 277 282 286 288 288 287 287 287 287 288 289 289 289 290 290 290 293 299 308 316 323 328 330 326 324 327 334 341 346 351 356 2
190 197 205 211 211 212 215 218 216 212 212 216 221 225 228 228 228 230 234 236 237 238 241 242 244 247 249 251 254 256 258 260 261 263 264 266 267 268 268 269 269 269 268 266 264 263 264 264 265 267 268 270 273 276 281 284 286 287 288 288 288 287 285 283 284 286 285 284 285 286 289 295 303 310 318 324 323 318 315 318 326 332 337 344 352
195 201 209 214 216 220 225 227 223 219 218 221 224 228 230 231 231 231 234 237 240 242 244 246 248 251 254 257 259 260 261 262 263 265 266 267 268 269 270 270 270 271 270 270 269 267 266 266 268 269 271 273 275 278 281 284 286 287 288 289 289 288 284 280 279 281 280 279 280 280 280 282 288 296 304 313 317 313 306 306 313 320 323 328 337
201 208 215 219 220 223 227 228 225 223 224 227 228 230 231 231 232 233 234 237 240 243 246 248 250 254 258 260 262 263 264 265 266 267 268 269 270 270 271 271 272 272 272 272 272 272 270 268 267 269 272 276 278 280 281 283 285 286 287 288 289 288 286 281 277 277 277 276 276 277 276 276 279 283 290 299 306 305 298 295 300 307 310 310 317